FW7404 Weather Reports


time (UTC)temp
C
wind
direction
speed
KPH
gust
KPH
rain 1hr
cm
rain 24hr
cm
rain mn
cm
humidity
%
barometer
mb
20260502180459 7 293 11.3 12.9 0.00 0.00 0.00 41 1017.4
20260502170418 7 176 0.0 4.8 0.00 0.00 0.00 42 1017.4
20260502163901 6 322 4.8 11.3 0.00 0.00 0.00 45 1017.9
20260502163358 7 290 8.0 11.3 0.00 0.00 0.00 45 1017.7
20260502162856 6 329 8.0 11.3 0.00 0.00 0.00 44 1017.8
20260502162352 7 307 12.9 14.5 0.00 0.00 0.00 42 1017.8
20260502161849 6 306 1.6 8.0 0.00 0.00 0.00 44 1017.7
20260502161345 6 332 9.7 12.9 0.00 0.00 0.00 45 1017.8
20260502160843 6 291 4.8 11.3 0.00 0.00 0.00 43 1017.9
20260502160341 6 349 3.2 8.0 0.00 0.00 0.00 46 1018.0
20260502152316 6 274 4.8 8.0 0.00 0.00 0.00 47 1017.6
20260502151814 6 335 6.4 8.0 0.00 0.00 0.00 47 1017.8
20260502151310 6 12 8.0 16.1 0.00 0.00 0.00 48 1017.9
20260502150808 6 0 8.0 14.5 0.00 0.00 0.00 47 1017.6
20260502150304 5 330 9.7 16.1 0.00 0.00 0.00 45 1017.6
20260502130653 5 54 3.2 8.0 0.00 0.00 0.00 67 1017.7
20260502130151 4 293 3.2 11.3 0.00 0.00 0.00 67 1018.0
20260502123636 4 351 4.8 8.0 0.00 0.00 0.00 69 1017.9
20260502123133 4 339 6.4 11.3 0.00 0.00 0.00 70 1018.0
20260502122629 3 30 3.2 8.0 0.00 0.00 0.00 70 1017.9
20260502122126 3 301 4.8 8.0 0.00 0.00 0.00 71 1018.0
20260502121624 3 31 3.2 8.0 0.00 0.00 0.00 71 1018.1
20260502121121 3 334 4.8 11.3 0.00 0.00 0.00 71 1018.1
20260502120618 3 27 3.2 8.0 0.00 0.00 0.00 72 1017.8
20260502120115 3 330 1.6 3.2 0.00 0.00 0.00 73 1018.1
20260502115613 2 0 6.4 11.3 0.00 0.00 0.00 73 1017.8
20260502115108 2 315 3.2 8.0 0.00 0.00 0.00 75 1017.8
20260502114604 2 313 3.2 9.7 0.00 0.00 0.00 76 1017.6
20260502114102 2 326 3.2 3.2 0.00 0.00 0.00 80 1017.6
20260502113559 1 345 1.6 4.8 0.00 0.00 0.00 84 1017.7
20260502113058 1 322 1.6 3.2 0.00 0.00 0.00 87 1017.6
20260502112555 1 324 3.2 4.8 0.00 0.00 0.00 89 1017.5
20260502112052 1 326 0.0 1.6 0.00 0.00 0.00 90 1017.5
20260502111550 0 334 1.6 4.8 0.00 0.00 0.00 91 1017.7
20260502111047 0 304 1.6 1.6 0.00 0.00 0.00 91 1017.4
20260502110544 0 265 0.0 1.6 0.00 0.00 0.00 91 1017.2
20260502110042 0 225 0.0 1.6 0.00 0.00 0.00 91 1017.5
20260502105539 0 224 0.0 0.0 0.00 0.00 0.00 90 1017.5
20260502105037 0 224 0.0 1.6 0.00 0.00 0.00 90 1017.6
20260502104533 0 70 0.0 0.0 0.00 0.00 0.00 90 1017.7
20260502104031 0 98 0.0 0.0 0.00 0.00 0.00 90 1017.6
20260502103529 0 98 1.6 1.6 0.00 0.00 0.00 90 1017.4
20260502103026 0 99 0.0 0.0 0.00 0.00 0.00 89 1017.6
20260502102522 0 99 0.0 0.0 0.00 0.00 0.00 89 1017.5
20260502102020 0 99 0.0 0.0 0.00 0.00 0.00 89 1017.4
20260502101517 1 99 0.0 0.0 0.00 0.00 0.00 89 1017.0
20260502101016 1 99 0.0 0.0 0.00 0.00 0.00 89 1017.3
20260502100514 1 99 0.0 0.0 0.00 0.00 0.00 89 1017.4
20260502091448 1 99 0.0 0.0 0.00 0.00 0.00 86 1017.1
20260502090946 2 99 0.0 0.0 0.00 0.00 0.00 86 1017.0
20260502090442 2 99 0.0 0.0 0.00 0.00 0.00 86 1017.0
20260502071337 3 89 1.6 1.6 0.00 0.00 0.00 83 1016.7
20260502070835 3 92 1.6 3.2 0.00 0.00 0.00 83 1016.7
20260502070332 3 83 1.6 3.2 0.00 0.00 0.00 83 1016.8
20260502065831 3 101 0.0 1.6 0.00 0.00 0.00 83 1016.5
20260502065329 3 103 0.0 0.0 0.00 0.00 0.00 82 1016.8
20260502064827 3 119 0.0 0.0 0.00 0.00 0.00 82 1016.6
20260502064325 3 120 0.0 0.0 0.00 0.00 0.00 82 1017.0
20260502063822 3 121 0.0 0.0 0.00 0.00 0.00 82 1016.9
20260502063319 3 120 0.0 0.0 0.00 0.00 0.00 81 1017.0
20260502062816 3 121 0.0 0.0 0.00 0.00 0.00 81 1017.1
20260502062314 3 121 0.0 0.0 0.00 0.00 0.00 81 1016.9
20260502061813 3 122 0.0 0.0 0.00 0.00 0.00 80 1017.1
20260502061310 3 124 1.6 1.6 0.00 0.00 0.00 79 1017.2
20260502060805 3 142 1.6 1.6 0.00 0.00 0.00 79 1017.0
20260502060301 3 178 1.6 1.6 0.00 0.00 0.00 79 1017.0
20260502055759 3 175 0.0 1.6 0.00 0.00 0.00 79 1017.2
20260502055256 3 85 0.0 0.0 0.00 0.00 0.00 78 1017.3
20260502054755 3 83 0.0 1.6 0.00 0.00 0.00 78 1017.3
20260502054253 3 84 0.0 0.0 0.00 0.00 0.00 78 1017.2
20260502053750 3 85 0.0 0.0 0.00 0.00 0.00 77 1017.2
20260502053247 3 93 0.0 1.6 0.00 0.00 0.00 77 1017.1
20260502052745 3 95 0.0 0.0 0.00 0.00 0.00 77 1017.1
20260502052243 3 94 0.0 1.6 0.00 0.00 0.00 76 1017.2
20260502051740 3 115 1.6 3.2 0.00 0.00 0.00 76 1017.1
20260502051239 3 74 1.6 1.6 0.00 0.00 0.00 76 1017.0
20260502050735 3 67 0.0 1.6 0.00 0.00 0.00 75 1017.3
20260502050231 3 61 0.0 1.6 0.00 0.00 0.00 75 1017.2
20260502045728 3 55 1.6 4.8 0.00 0.00 0.00 74 1017.3
20260502045225 3 54 1.6 3.2 0.00 0.00 0.00 74 1016.9
20260502044722 3 12 1.6 4.8 0.00 0.00 0.00 74 1016.9
20260502044218 3 26 3.2 3.2 0.00 0.00 0.00 74 1017.0
20260502043716 3 94 1.6 3.2 0.00 0.00 0.00 73 1016.9
20260502043213 4 88 3.2 4.8 0.00 0.00 0.00 73 1016.9
20260502042712 4 79 0.0 8.0 0.00 0.00 0.00 72 1016.7
20260502042210 4 52 3.2 4.8 0.00 0.00 0.00 71 1016.7
20260502041708 4 36 1.6 11.3 0.00 0.00 0.00 71 1016.8
20260502041204 4 111 3.2 4.8 0.00 0.00 0.00 71 1016.8
20260502040701 4 101 3.2 8.0 0.00 0.00 0.00 70 1016.6
20260502040158 5 33 6.4 9.7 0.00 0.00 0.00 69 1016.7
20260502035654 5 53 9.7 16.1 0.00 0.00 0.00 68 1016.6
20260502035151 5 43 1.6 4.8 0.00 0.00 0.00 67 1016.4
20260502034649 5 332 4.8 8.0 0.00 0.00 0.00 66 1016.3
20260502034147 5 324 4.8 8.0 0.00 0.00 0.00 65 1016.5
20260502033645 5 354 1.6 3.2 0.00 0.00 0.00 66 1016.4
20260502033142 5 354 1.6 3.2 0.00 0.00 0.00 66 1015.9
20260502032638 5 335 1.6 1.6 0.00 0.00 0.00 65 1016.3
20260502032135 5 343 3.2 8.0 0.00 0.00 0.00 65 1016.3
20260502031633 5 306 1.6 4.8 0.00 0.00 0.00 66 1016.0
20260502031130 5 297 1.6 3.2 0.00 0.00 0.00 66 1016.2
20260502030629 5 303 1.6 1.6 0.00 0.00 0.00 66 1016.0
20260502030127 5 326 1.6 3.2 0.00 0.00 0.00 66 1016.0
20260502025624 5 349 1.6 3.2 0.00 0.00 0.00 66 1016.2
20260502025122 5 1 3.2 4.8 0.00 0.00 0.00 65 1015.9
20260502024619 6 340 1.6 3.2 0.00 0.00 0.00 65 1016.0
20260502024117 6 343 4.8 9.7 0.00 0.00 0.00 65 1016.0
20260502023615 6 347 1.6 4.8 0.00 0.00 0.00 65 1015.9
20260502023112 6 316 1.6 1.6 0.00 0.00 0.00 65 1016.2
20260502022609 6 320 3.2 8.0 0.00 0.00 0.00 65 1016.2
20260502022106 6 287 1.6 8.0 0.00 0.00 0.00 64 1016.0
20260502021603 6 322 4.8 8.0 0.00 0.00 0.00 64 1016.0
20260502021100 6 293 4.8 9.7 0.00 0.00 0.00 63 1016.0
20260502020557 6 321 3.2 4.8 0.00 0.00 0.00 63 1015.9
20260502020054 6 335 4.8 4.8 0.00 0.00 0.00 62 1015.7
20260502015552 6 333 3.2 9.7 0.00 0.00 0.00 62 1015.5
20260502015048 6 241 3.2 9.7 0.00 0.00 0.00 62 1015.9
20260502014545 6 3 1.6 4.8 0.00 0.00 0.00 62 1015.7
20260502014042 6 324 4.8 4.8 0.00 0.00 0.00 63 1015.8
20260502013537 6 321 3.2 3.2 0.00 0.00 0.00 62 1015.6
20260502013034 6 301 1.6 1.6 0.00 0.00 0.00 63 1015.7
20260502012532 6 298 3.2 8.0 0.00 0.00 0.00 62 1015.4
20260502012029 6 305 6.4 9.7 0.00 0.00 0.00 62 1015.4
20260502011526 6 356 1.6 4.8 0.00 0.00 0.00 63 1015.5
20260502011022 6 313 1.6 3.2 0.00 0.00 0.00 64 1015.4
20260502010520 6 324 1.6 1.6 0.00 0.00 0.00 64 1015.3
20260502010016 6 312 1.6 3.2 0.00 0.00 0.00 63 1015.3
20260502005514 6 292 3.2 4.8 0.00 0.00 0.00 62 1015.2
20260502005011 6 305 3.2 3.2 0.00 0.00 0.00 62 1015.3
20260502004507 6 0 1.6 8.0 0.00 0.00 0.00 62 1015.1
20260502004004 6 324 3.2 8.0 0.00 0.00 0.00 63 1015.2
20260502003501 6 299 1.6 4.8 0.00 0.00 0.00 63 1015.2
20260502002957 6 304 6.4 8.0 0.00 0.00 0.00 63 1015.2
20260502002455 6 321 6.4 8.0 0.00 0.00 0.00 62 1015.2
20260502001952 6 304 1.6 4.8 0.00 0.00 0.00 62 1015.1
20260502001449 6 303 3.2 8.0 0.00 0.00 0.00 62 1015.1
20260502000947 6 302 3.2 9.7 0.00 0.00 0.00 63 1015.0
20260502000446 6 317 4.8 8.0 0.00 0.00 0.00 63 1014.9
20260501235941 6 317 3.2 4.8 0.00 0.00 0.00 63 1014.9
20260501235437 6 332 1.6 3.2 0.00 0.00 0.00 64 1014.9
20260501234932 6 342 3.2 4.8 0.00 0.00 0.00 63 1015.0
20260501234429 7 325 3.2 4.8 0.00 0.00 0.00 63 1014.7
20260501233928 6 277 1.6 3.2 0.00 0.00 0.00 62 1014.6
20260501233425 7 335 3.2 3.2 0.00 0.00 0.00 62 1014.6
20260501232920 7 9 4.8 8.0 0.00 0.00 0.00 62 1014.7
20260501232418 7 345 4.8 9.7 0.00 0.00 0.00 62 1014.6
20260501231915 7 4 3.2 9.7 0.00 0.00 0.00 62 1014.6
20260501231414 7 347 8.0 11.3 0.00 0.00 0.00 62 1014.6
20260501230911 7 357 1.6 3.2 0.00 0.00 0.00 62 1014.5
20260501230410 7 5 1.6 8.0 0.00 0.00 0.00 61 1014.6
20260501225907 7 351 11.3 16.1 0.00 0.00 0.00 60 1014.5
20260501225405 7 347 4.8 12.9 0.00 0.00 0.00 60 1014.7
20260501224900 7 333 9.7 12.9 0.00 0.00 0.00 58 1014.6
20260501224358 7 339 9.7 12.9 0.00 0.00 0.00 58 1014.4
20260501223854 7 284 6.4 17.7 0.00 0.00 0.00 58 1014.6
20260501223350 7 0 4.8 17.7 0.00 0.00 0.00 58 1014.6
20260501222846 7 348 8.0 14.5 0.00 0.00 0.00 59 1014.5
20260501222344 7 286 8.0 11.3 0.00 0.00 0.00 57 1014.6
20260501221840 7 345 4.8 4.8 0.00 0.00 0.00 56 1014.4
20260501221337 8 300 3.2 4.8 0.00 0.00 0.00 56 1014.4
20260501220836 8 314 4.8 8.0 0.00 0.00 0.00 55 1014.4
20260501220333 8 305 9.7 12.9 0.00 0.00 0.00 53 1014.2
20260501215829 8 301 6.4 12.9 0.00 0.00 0.00 53 1014.1
20260501215325 8 335 6.4 11.3 0.00 0.00 0.00 52 1014.1
20260501214821 8 295 8.0 11.3 0.00 0.00 0.00 53 1014.0
20260501214316 8 285 4.8 8.0 0.00 0.00 0.00 55 1014.1
20260501213813 8 335 4.8 11.3 0.00 0.00 0.00 54 1014.1
20260501213309 8 311 4.8 12.9 0.00 0.00 0.00 53 1013.9
20260501212805 8 289 4.8 9.7 0.00 0.00 0.00 54 1014.1
20260501212305 8 290 3.2 8.0 0.00 0.00 0.00 53 1014.2
20260501211759 8 308 6.4 11.3 0.00 0.00 0.00 53 1014.1
20260501211256 8 338 8.0 14.5 0.00 0.00 0.00 54 1013.7
20260501210753 8 331 9.7 11.3 0.00 0.00 0.00 54 1013.8
20260501210249 8 315 4.8 8.0 0.00 0.00 0.00 55 1013.8
20260501205746 8 321 3.2 11.3 0.00 0.00 0.00 55 1013.9
20260501205243 8 296 6.4 11.3 0.00 0.00 0.00 53 1013.7
20260501204740 8 322 3.2 9.7 0.00 0.00 0.00 52 1013.6
20260501204237 8 335 8.0 9.7 0.00 0.00 0.00 52 1013.7
20260501203733 8 306 4.8 8.0 0.00 0.00 0.00 52 1013.6
20260501203230 8 287 3.2 9.7 0.00 0.00 0.00 50 1013.7
20260501202727 8 156 1.6 9.7 0.00 0.00 0.00 50 1013.7
20260501202224 9 295 11.3 11.3 0.00 0.00 0.00 49 1013.7
20260501201721 9 22 4.8 11.3 0.00 0.00 0.00 50 1013.7
20260501201218 9 19 6.4 9.7 0.00 0.00 0.00 50 1013.6
20260501200714 8 268 3.2 11.3 0.00 0.00 0.00 51 1013.9
20260501200212 8 327 8.0 9.7 0.00 0.00 0.00 52 1013.8
20260501195709 8 335 6.4 11.3 0.00 0.00 0.00 52 1013.8
20260501195205 8 301 4.8 12.9 0.00 0.00 0.00 51 1013.6
20260501194701 9 46 6.4 9.7 0.00 0.00 0.00 49 1013.5
20260501194156 10 341 6.4 8.0 0.00 0.00 0.00 49 1013.6
20260501193654 9 5 1.6 3.2 0.00 0.00 0.00 47 1013.6
20260501193152 9 343 3.2 9.7 0.00 0.00 0.00 47 1013.4
20260501192649 10 298 3.2 9.7 0.00 0.00 0.00 48 1013.5
20260501192146 10 344 8.0 16.1 0.00 0.00 0.00 47 1013.5
20260501191644 10 287 3.2 9.7 0.00 0.00 0.00 47 1013.3
20260501191141 10 291 1.6 9.7 0.00 0.00 0.00 46 1013.3
20260501190637 9 292 4.8 9.7 0.00 0.00 0.00 48 1013.2
20260501190132 9 8 4.8 9.7 0.00 0.00 0.00 47 1013.5
20260501185628 9 303 3.2 11.3 0.00 0.00 0.00 48 1013.4
20260501185124 9 2 8.0 12.9 0.00 0.00 0.00 48 1013.6
20260501184621 10 342 8.0 14.5 0.00 0.00 0.00 47 1013.4
20260501184115 10 280 4.8 11.3 0.00 0.00 0.00 44 1013.2
20260501183612 10 15 4.8 9.7 0.00 0.00 0.00 46 1013.0
20260501183109 9 315 8.0 9.7 0.00 0.00 0.00 46 1013.2
20260501182605 9 349 6.4 11.3 0.00 0.00 0.00 47 1013.2
20260501182102 9 335 4.8 11.3 0.00 0.00 0.00 48 1013.2
20260501181600 8 271 3.2 8.0 0.00 0.00 0.00 51 1013.1
20260501181056 8 343 6.4 8.0 0.00 0.00 0.00 49 1013.2